HORS 4 (RS82S)

Last updated on Fri May 09 2025 00:03:04 GMT+0000 (Coordinated Universal Time)

1 61754U 24199V 25128.50872177 .00018213 00000+0 56142-3 0 9998 2 61754 97.3586 357.5174 0009048 311.1986 48.8476 15.33618051 75197
UTC large
Height (km)
Speed (km/s)
/
Latitude / Longitude
Inclination (degrees)
Orbital Period (minutes)
Azimuth
Elevation
Range (km)
Doppler Factor

Next 0 passes for location: London (51.5072 / 0.1276)

Sorry there are no passes over London.